THY427 LTFM-UGTB

Flight info

Callsign THY427
Flight time 1h 53m
Altitude 37000
Route VICE1R VICEN DCT ASMAP UL333 LATGA UT363 GURBU UL615 SIV UW706 TBN UN61 NOLGA N61 LAGAS
Aircraft A320/M-SDE3FGHIRWY/LB1

Departure

Time 2026-05-07 17:40
Airport İstanbul Airport (LTFM)

Arrival

Time 2026-05-07 19:33
Airport Tbilisi International Airport (UGTB)
Time Latitude Longitude Altitude Speed Heading
2026-05-07 17:04 41.26553 28.73506 329 ft 0 kts 74°
2026-05-07 17:29 41.26546 28.73475 330 ft 4 kts 70°
2026-05-07 17:29 41.26536 28.73442 331 ft 4 kts 62°
2026-05-07 17:29 41.26521 28.73413 332 ft 4 kts 43°
2026-05-07 17:29 41.26501 28.73399 333 ft 3 kts 347°
2026-05-07 17:30 41.26493 28.73401 332 ft 0 kts 341°
2026-05-07 17:33 41.26498 28.73399 333 ft 3 kts 341°
2026-05-07 17:33 41.26532 28.73384 332 ft 8 kts 341°
2026-05-07 17:33 41.26586 28.73346 333 ft 10 kts 309°
2026-05-07 17:33 41.26599 28.73251 334 ft 10 kts 270°
2026-05-07 17:34 41.26599 28.73180 334 ft 8 kts 270°
2026-05-07 17:34 41.26598 28.73095 330 ft 10 kts 268°
2026-05-07 17:34 41.26596 28.72989 333 ft 12 kts 269°
2026-05-07 17:34 41.26595 28.72953 333 ft 0 kts 269°
2026-05-07 17:37 41.26595 28.72949 331 ft 0 kts 269°
2026-05-07 17:37 41.26595 28.72915 334 ft 14 kts 269°
2026-05-07 17:38 41.26593 28.72744 334 ft 20 kts 269°
2026-05-07 17:38 41.26592 28.72555 334 ft 15 kts 282°
2026-05-07 17:38 41.26662 28.72515 331 ft 0 kts 359°
2026-05-07 17:38 41.26665 28.72515 332 ft 0 kts 359°
2026-05-07 17:39 41.26666 28.72515 332 ft 1 kts 359°
2026-05-07 17:39 41.26717 28.72514 333 ft 30 kts 359°
2026-05-07 17:39 41.27165 28.72503 333 ft 96 kts 359°
2026-05-07 17:40 41.28007 28.72483 334 ft 144 kts 359°
2026-05-07 17:40 41.29100 28.72449 644 ft 159 kts 359°
2026-05-07 17:40 41.30205 28.72444 1181 ft 160 kts 357°
2026-05-07 17:40 41.31341 28.72431 1687 ft 165 kts 358°
2026-05-07 17:41 41.32491 28.72450 2296 ft 164 kts 357°
2026-05-07 17:41 41.33684 28.72473 2610 ft 182 kts 355°
2026-05-07 17:41 41.35010 28.72480 2843 ft 205 kts 356°
2026-05-07 17:41 41.36514 28.72390 3165 ft 226 kts 342°
2026-05-07 17:42 41.37845 28.71242 3518 ft 241 kts 303°
2026-05-07 17:42 41.38399 28.69110 4089 ft 252 kts 276°
2026-05-07 17:42 41.38469 28.66751 4900 ft 258 kts 269°
2026-05-07 17:42 41.38390 28.64336 5716 ft 263 kts 267°
2026-05-07 17:43 41.38277 28.61885 6559 ft 267 kts 267°
2026-05-07 17:43 41.38131 28.59398 7345 ft 272 kts 259°
2026-05-07 17:43 41.37354 28.57097 8100 ft 279 kts 232°
2026-05-07 17:43 41.35818 28.55505 8873 ft 287 kts 204°
2026-05-07 17:44 41.33872 28.55049 9618 ft 293 kts 181°
2026-05-07 17:44 41.31814 28.55080 10304 ft 301 kts 180°
2026-05-07 17:44 41.29640 28.55143 10501 ft 324 kts 179°
2026-05-07 17:44 41.27319 28.55522 10653 ft 348 kts 168°
2026-05-07 17:45 41.24968 28.56583 10957 ft 364 kts 155°
2026-05-07 17:45 41.22763 28.58304 11534 ft 371 kts 144°
2026-05-07 17:45 41.20816 28.60571 12168 ft 375 kts 136°
2026-05-07 17:45 41.18929 28.62982 12824 ft 378 kts 136°
2026-05-07 17:46 41.17028 28.65410 13470 ft 381 kts 136°
2026-05-07 17:46 41.15112 28.67858 14078 ft 385 kts 136°
2026-05-07 17:46 41.13263 28.70381 14599 ft 388 kts 128°
2026-05-07 17:46 41.11933 28.73494 15095 ft 392 kts 110°
2026-05-07 17:47 41.11080 28.76941 15607 ft 395 kts 107°
2026-05-07 17:47 41.10255 28.80428 16126 ft 398 kts 107°
2026-05-07 17:47 41.09538 28.83483 16573 ft 402 kts 106°
2026-05-07 17:47 41.08702 28.87033 17093 ft 405 kts 107°
2026-05-07 17:48 41.07861 28.90593 17624 ft 409 kts 107°
2026-05-07 17:48 41.07004 28.94203 18142 ft 413 kts 107°
2026-05-07 17:48 41.06136 28.97843 18626 ft 416 kts 106°
2026-05-07 17:48 41.05270 29.01467 19098 ft 420 kts 106°
2026-05-07 17:49 41.04384 29.05169 19570 ft 423 kts 106°
2026-05-07 17:49 41.03491 29.08897 20042 ft 427 kts 106°
2026-05-07 17:49 41.02592 29.12641 20505 ft 430 kts 106°
2026-05-07 17:49 41.01679 29.16429 20947 ft 433 kts 106°
2026-05-07 17:50 41.00757 29.20240 21375 ft 437 kts 106°
2026-05-07 17:50 40.99827 29.24084 21790 ft 440 kts 106°
2026-05-07 17:50 40.98890 29.27950 22196 ft 443 kts 105°
2026-05-07 17:50 40.97956 29.31798 22591 ft 447 kts 105°
2026-05-07 17:51 40.97004 29.35724 22983 ft 450 kts 105°
2026-05-07 17:51 40.96044 29.39682 23388 ft 453 kts 105°
2026-05-07 17:51 40.95071 29.43682 23564 ft 461 kts 105°
2026-05-07 17:51 40.94080 29.47751 23697 ft 469 kts 105°
2026-05-07 17:52 40.93070 29.51886 23819 ft 477 kts 105°
2026-05-07 17:52 40.92041 29.56087 23939 ft 484 kts 105°
2026-05-07 17:52 40.90995 29.60348 24054 ft 490 kts 105°
2026-05-07 17:52 40.89936 29.64658 24170 ft 496 kts 105°
2026-05-07 17:53 40.88862 29.69023 24290 ft 503 kts 105°
2026-05-07 17:53 40.87770 29.73437 24405 ft 508 kts 105°
2026-05-07 17:53 40.86680 29.77836 24520 ft 513 kts 105°
2026-05-07 17:53 40.85564 29.82329 24743 ft 516 kts 105°
2026-05-07 17:54 40.84444 29.86839 25049 ft 517 kts 105°
2026-05-07 17:54 40.83323 29.91350 25380 ft 517 kts 105°
2026-05-07 17:54 40.82201 29.95871 25711 ft 518 kts 105°
2026-05-07 17:54 40.81078 30.00377 26106 ft 517 kts 105°
2026-05-07 17:55 40.79949 30.04884 26495 ft 516 kts 105°
2026-05-07 17:55 40.78822 30.09380 26893 ft 516 kts 105°
2026-05-07 17:55 40.77699 30.13870 27279 ft 516 kts 105°
2026-05-07 17:55 40.76590 30.18299 27672 ft 515 kts 105°
2026-05-07 17:56 40.75459 30.22790 28068 ft 515 kts 105°
2026-05-07 17:56 40.74327 30.27269 28477 ft 515 kts 105°
2026-05-07 17:56 40.73195 30.31747 28895 ft 514 kts 105°
2026-05-07 17:56 40.72058 30.36217 29308 ft 514 kts 105°
2026-05-07 17:57 40.70921 30.40676 29757 ft 514 kts 105°
2026-05-07 17:57 40.70167 30.43636 29997 ft 514 kts 105°
2026-05-07 17:57 40.68645 30.49619 30485 ft 514 kts 105°
2026-05-07 17:57 40.67527 30.54023 30862 ft 514 kts 105°
2026-05-07 17:58 40.66392 30.58482 31251 ft 513 kts 105°
2026-05-07 17:58 40.65257 30.62924 31648 ft 512 kts 105°
2026-05-07 17:58 40.64117 30.67362 32026 ft 511 kts 105°
2026-05-07 17:58 40.62982 30.71797 32401 ft 510 kts 104°
2026-05-07 17:59 40.61924 30.76241 32812 ft 508 kts 103°
2026-05-07 17:59 40.60958 30.80698 33267 ft 505 kts 102°
2026-05-07 17:59 40.60053 30.85158 33656 ft 503 kts 101°
2026-05-07 17:59 40.59171 30.89609 34003 ft 503 kts 101°
2026-05-07 18:00 40.58296 30.93997 34338 ft 502 kts 101°
2026-05-07 18:00 40.57390 30.98424 34691 ft 502 kts 101°
2026-05-07 18:00 40.56457 31.02854 35008 ft 502 kts 102°
2026-05-07 18:00 40.55506 31.07270 35380 ft 502 kts 102°
2026-05-07 18:01 40.54547 31.11677 35739 ft 501 kts 102°
2026-05-07 18:01 40.53588 31.16075 36076 ft 500 kts 102°
2026-05-07 18:01 40.52633 31.20460 36394 ft 499 kts 102°
2026-05-07 18:01 40.51687 31.24844 36719 ft 498 kts 102°
2026-05-07 18:02 40.49820 31.33544 37149 ft 498 kts 102°
2026-05-07 18:02 40.48875 31.37926 37154 ft 498 kts 102°
2026-05-07 18:03 40.46974 31.46655 37164 ft 497 kts 103°
2026-05-07 18:03 40.45071 31.55361 37173 ft 498 kts 102°
2026-05-07 18:04 40.43169 31.64062 37169 ft 498 kts 102°
2026-05-07 18:04 40.41256 31.72787 37170 ft 498 kts 103°
2026-05-07 18:05 40.39331 31.81507 37165 ft 498 kts 103°
2026-05-07 18:05 40.37388 31.90235 37177 ft 499 kts 103°
2026-05-07 18:06 40.35445 31.98964 37175 ft 499 kts 103°
2026-05-07 18:06 40.33503 32.07624 37178 ft 499 kts 103°
2026-05-07 18:07 40.31634 32.16363 37204 ft 497 kts 101°
2026-05-07 18:07 40.29946 32.25148 37192 ft 497 kts 101°
2026-05-07 18:08 40.28284 32.33885 37188 ft 498 kts 101°
2026-05-07 18:08 40.26551 32.42671 37194 ft 499 kts 101°
2026-05-07 18:09 40.24782 32.51446 37197 ft 498 kts 102°
2026-05-07 18:09 40.23003 32.60206 37187 ft 498 kts 102°
2026-05-07 18:10 40.21228 32.68957 37196 ft 498 kts 101°
2026-05-07 18:10 40.19472 32.77650 37206 ft 498 kts 101°
2026-05-07 18:11 40.17700 32.86396 37215 ft 497 kts 102°
2026-05-07 18:11 40.15919 32.95120 37215 ft 497 kts 102°
2026-05-07 18:12 40.14775 33.03939 37217 ft 489 kts 86°
2026-05-07 18:12 40.15005 33.12709 37222 ft 486 kts 83°
2026-05-07 18:13 40.15264 33.21525 37206 ft 486 kts 83°
2026-05-07 18:13 40.15514 33.30351 37196 ft 486 kts 83°
2026-05-07 18:14 40.15755 33.39184 37186 ft 486 kts 83°
2026-05-07 18:14 40.15994 33.47967 37184 ft 487 kts 84°
2026-05-07 18:15 40.16218 33.56810 37172 ft 487 kts 84°
2026-05-07 18:15 40.16429 33.65671 37183 ft 487 kts 84°
2026-05-07 18:16 40.16635 33.74525 37177 ft 487 kts 84°
2026-05-07 18:16 40.16717 33.83387 37175 ft 490 kts 91°
2026-05-07 18:17 40.15636 33.92168 37170 ft 493 kts 97°
2026-05-07 18:17 40.14474 34.00994 37157 ft 493 kts 95°
2026-05-07 18:18 40.13529 34.09854 37157 ft 492 kts 94°
2026-05-07 18:18 40.12642 34.18722 37181 ft 492 kts 94°
2026-05-07 18:19 40.11703 34.27522 37163 ft 492 kts 95°
2026-05-07 18:19 40.10713 34.36373 37163 ft 492 kts 95°
2026-05-07 18:20 40.09713 34.45220 37170 ft 492 kts 95°
2026-05-07 18:20 40.08720 34.54061 37189 ft 492 kts 95°
2026-05-07 18:21 40.07736 34.62836 37184 ft 492 kts 95°
2026-05-07 18:21 40.06735 34.71671 37177 ft 492 kts 95°
2026-05-07 18:22 40.05723 34.80499 37178 ft 492 kts 95°
2026-05-07 18:22 40.04700 34.89332 37187 ft 492 kts 95°
2026-05-07 18:23 40.03682 34.98099 37185 ft 492 kts 95°
2026-05-07 18:23 40.02652 35.06924 37182 ft 492 kts 95°
2026-05-07 18:24 40.01622 35.15744 37179 ft 492 kts 95°
2026-05-07 18:24 40.00577 35.24565 37199 ft 492 kts 96°
2026-05-07 18:25 39.99527 35.33314 37187 ft 492 kts 96°
2026-05-07 18:25 39.98454 35.42111 37181 ft 491 kts 96°
2026-05-07 18:26 39.97341 35.50900 37174 ft 491 kts 96°
2026-05-07 18:26 39.96221 35.59683 37182 ft 491 kts 96°
2026-05-07 18:27 39.95100 35.68462 37188 ft 491 kts 96°
2026-05-07 18:27 39.93981 35.77181 37187 ft 491 kts 97°
2026-05-07 18:28 39.92848 35.85949 37195 ft 491 kts 97°
2026-05-07 18:28 39.91709 35.94722 37207 ft 491 kts 97°
2026-05-07 18:29 39.90572 36.03495 37210 ft 491 kts 97°
2026-05-07 18:29 39.89427 36.12212 37220 ft 491 kts 97°
2026-05-07 18:30 39.88252 36.20971 37223 ft 491 kts 97°
2026-05-07 18:30 39.87068 36.29732 37215 ft 491 kts 97°
2026-05-07 18:31 39.85812 36.38477 37216 ft 492 kts 98°
2026-05-07 18:31 39.84609 36.47172 37219 ft 491 kts 97°
2026-05-07 18:32 39.83462 36.55933 37218 ft 491 kts 97°
2026-05-07 18:32 39.82306 36.64696 37246 ft 492 kts 97°
2026-05-07 18:33 39.81120 36.73455 37251 ft 492 kts 97°
2026-05-07 18:33 39.80001 36.82165 37259 ft 490 kts 92°
2026-05-07 18:34 39.80498 36.90881 37277 ft 481 kts 72°
2026-05-07 18:34 39.83061 36.98801 37266 ft 474 kts 57°
2026-05-07 18:35 39.86320 37.06253 37251 ft 474 kts 57°
2026-05-07 18:35 39.89537 37.13690 37236 ft 475 kts 57°
2026-05-07 18:36 39.92766 37.21194 37236 ft 475 kts 58°
2026-05-07 18:36 39.95989 37.28704 37222 ft 475 kts 58°
2026-05-07 18:37 39.99222 37.36217 37218 ft 475 kts 58°
2026-05-07 18:37 40.02430 37.43689 37215 ft 475 kts 58°
2026-05-07 18:38 40.05650 37.51227 37210 ft 475 kts 58°
2026-05-07 18:38 40.08861 37.58766 37204 ft 475 kts 58°
2026-05-07 18:39 40.12082 37.66310 37204 ft 475 kts 58°
2026-05-07 18:39 40.15289 37.73796 37212 ft 475 kts 58°
2026-05-07 18:40 40.18521 37.81337 37210 ft 475 kts 58°
2026-05-07 18:40 40.21739 37.88890 37234 ft 475 kts 58°
2026-05-07 18:41 40.24944 37.96454 37211 ft 475 kts 58°
2026-05-07 18:41 40.28130 38.03971 37211 ft 475 kts 58°
2026-05-07 18:42 40.31329 38.11549 37207 ft 475 kts 59°
2026-05-07 18:42 40.34505 38.19149 37211 ft 476 kts 59°
2026-05-07 18:43 40.37579 38.26835 37207 ft 476 kts 60°
2026-05-07 18:43 40.40673 38.34429 37209 ft 475 kts 58°
2026-05-07 18:44 40.43947 38.41952 37221 ft 474 kts 58°
2026-05-07 18:44 40.47246 38.49452 37219 ft 475 kts 58°
2026-05-07 18:45 40.50492 38.57007 37213 ft 475 kts 58°
2026-05-07 18:45 40.53633 38.64578 37229 ft 475 kts 60°
2026-05-07 18:46 40.56727 38.72252 37220 ft 475 kts 60°
2026-05-07 18:46 40.59822 38.79929 37216 ft 475 kts 60°
2026-05-07 18:47 40.62927 38.87596 37218 ft 475 kts 60°
2026-05-07 18:47 40.66019 38.95211 37225 ft 475 kts 60°
2026-05-07 18:48 40.69122 39.02889 37223 ft 475 kts 60°
2026-05-07 18:48 40.72206 39.10583 37219 ft 475 kts 60°
2026-05-07 18:49 40.75285 39.18282 37226 ft 475 kts 60°
2026-05-07 18:49 40.78345 39.25941 37217 ft 476 kts 60°
2026-05-07 18:50 40.81421 39.33682 37213 ft 477 kts 60°
2026-05-07 18:50 40.84503 39.41441 37217 ft 477 kts 60°
2026-05-07 18:51 40.87586 39.49208 37225 ft 477 kts 61°
2026-05-07 18:51 40.90662 39.56979 37226 ft 477 kts 61°
2026-05-07 18:52 40.93713 39.64713 37226 ft 478 kts 61°
2026-05-07 18:52 40.96773 39.72508 37233 ft 478 kts 62°
2026-05-07 18:53 40.99548 39.80485 37231 ft 479 kts 72°
2026-05-07 18:53 41.00953 39.89102 37229 ft 479 kts 78°
2026-05-07 18:54 41.02242 39.97701 37225 ft 479 kts 78°
2026-05-07 18:54 41.03545 40.06362 37225 ft 479 kts 78°
2026-05-07 18:55 41.04837 40.15022 37217 ft 479 kts 78°
2026-05-07 18:55 41.06113 40.23693 37210 ft 480 kts 78°
2026-05-07 18:56 41.07366 40.32314 37210 ft 480 kts 78°
2026-05-07 18:56 41.08633 40.41003 37212 ft 480 kts 78°
2026-05-07 18:57 41.09897 40.49690 37216 ft 480 kts 78°
2026-05-07 18:57 41.11151 40.58381 37219 ft 480 kts 78°
2026-05-07 18:58 41.12395 40.67076 37237 ft 479 kts 79°
2026-05-07 18:58 41.13618 40.75684 37243 ft 478 kts 79°
2026-05-07 18:59 41.14841 40.84342 37243 ft 477 kts 79°
2026-05-07 18:59 41.16061 40.92982 37238 ft 476 kts 79°
2026-05-07 19:00 41.17274 41.01623 37230 ft 476 kts 79°
2026-05-07 19:00 41.18470 41.10211 37228 ft 476 kts 79°
2026-05-07 19:01 41.19668 41.18859 37229 ft 476 kts 79°
2026-05-07 19:01 41.20857 41.27510 37225 ft 476 kts 79°
2026-05-07 19:02 41.22050 41.36171 37219 ft 477 kts 79°
2026-05-07 19:02 41.23236 41.44849 37219 ft 477 kts 80°
2026-05-07 19:03 41.24404 41.53474 37220 ft 478 kts 80°
2026-05-07 19:03 41.25574 41.62174 37227 ft 478 kts 80°
2026-05-07 19:04 41.26736 41.70876 37233 ft 478 kts 80°
2026-05-07 19:04 41.27895 41.79584 37242 ft 478 kts 80°
2026-05-07 19:05 41.29036 41.88239 37237 ft 478 kts 80°
2026-05-07 19:05 41.30182 41.96962 37236 ft 479 kts 81°
2026-05-07 19:06 41.31317 42.05703 37241 ft 479 kts 81°
2026-05-07 19:06 41.32993 42.18821 37251 ft 480 kts 81°
2026-05-07 19:07 41.34097 42.27515 37250 ft 480 kts 81°
2026-05-07 19:07 41.35206 42.36247 37272 ft 477 kts 81°
2026-05-07 19:08 41.36297 42.44933 37273 ft 475 kts 81°
2026-05-07 19:08 41.37378 42.53595 37256 ft 474 kts 81°
2026-05-07 19:09 41.38443 42.62189 37255 ft 474 kts 81°
2026-05-07 19:09 41.38974 42.66508 37134 ft 472 kts 81°
2026-05-07 19:09 41.39504 42.70817 36586 ft 471 kts 81°
2026-05-07 19:10 41.40036 42.75122 36001 ft 471 kts 82°
2026-05-07 19:10 41.40569 42.79425 35430 ft 471 kts 82°
2026-05-07 19:10 41.41097 42.83725 34854 ft 470 kts 82°
2026-05-07 19:10 41.41618 42.88018 34294 ft 470 kts 82°
2026-05-07 19:11 41.42133 42.92308 33652 ft 469 kts 82°
2026-05-07 19:11 41.42646 42.96589 32972 ft 467 kts 82°
2026-05-07 19:11 41.43152 43.00799 32320 ft 466 kts 81°
2026-05-07 19:11 41.43664 43.05057 31656 ft 465 kts 81°
2026-05-07 19:12 41.44176 43.09310 30932 ft 465 kts 81°
2026-05-07 19:12 41.44684 43.13558 30202 ft 464 kts 81°
2026-05-07 19:12 41.45192 43.17811 29305 ft 464 kts 81°
2026-05-07 19:12 41.45696 43.22055 28378 ft 464 kts 81°
2026-05-07 19:13 41.46200 43.26307 27418 ft 464 kts 81°
2026-05-07 19:13 41.46704 43.30558 26596 ft 462 kts 81°
2026-05-07 19:13 41.47200 43.34765 25924 ft 456 kts 81°
2026-05-07 19:13 41.47680 43.38861 25260 ft 451 kts 81°
2026-05-07 19:14 41.48156 43.42963 24600 ft 445 kts 81°
2026-05-07 19:14 41.48624 43.47018 23967 ft 440 kts 81°
2026-05-07 19:14 41.49086 43.51025 23258 ft 435 kts 81°
2026-05-07 19:14 41.49543 43.54985 22540 ft 429 kts 81°
2026-05-07 19:15 41.49995 43.58898 21807 ft 425 kts 81°
2026-05-07 19:15 41.50442 43.62771 21108 ft 420 kts 81°
2026-05-07 19:15 41.50883 43.66602 20389 ft 416 kts 81°
2026-05-07 19:15 41.51312 43.70356 19686 ft 414 kts 82°
2026-05-07 19:16 41.51740 43.74145 19029 ft 411 kts 82°
2026-05-07 19:16 41.52160 43.77900 18384 ft 408 kts 82°
2026-05-07 19:16 41.52580 43.81632 17701 ft 405 kts 82°
2026-05-07 19:16 41.52998 43.85329 17070 ft 401 kts 82°
2026-05-07 19:17 41.53413 43.88994 16444 ft 397 kts 82°
2026-05-07 19:17 41.53823 43.92623 15807 ft 394 kts 82°
2026-05-07 19:17 41.54230 43.96225 15187 ft 391 kts 82°
2026-05-07 19:17 41.54629 43.99793 14563 ft 387 kts 82°
2026-05-07 19:18 41.55014 44.03290 13965 ft 384 kts 82°
2026-05-07 19:18 41.55400 44.06802 13281 ft 381 kts 82°
2026-05-07 19:18 41.55784 44.10279 12619 ft 377 kts 82°
2026-05-07 19:18 41.56163 44.13722 11977 ft 373 kts 82°
2026-05-07 19:19 41.56538 44.17132 11376 ft 369 kts 82°
2026-05-07 19:19 41.56893 44.20511 11109 ft 368 kts 84°
2026-05-07 19:19 41.56963 44.23922 10891 ft 367 kts 93°
2026-05-07 19:19 41.56650 44.27308 10654 ft 367 kts 100°
2026-05-07 19:20 41.56203 44.30660 10409 ft 366 kts 100°
2026-05-07 19:20 41.55770 44.33954 10172 ft 365 kts 100°
2026-05-07 19:20 41.55337 44.37267 9935 ft 357 kts 100°
2026-05-07 19:20 41.54926 44.40426 10018 ft 334 kts 100°
2026-05-07 19:21 41.54539 44.43392 10034 ft 316 kts 100°
2026-05-07 19:21 41.54172 44.46207 10022 ft 301 kts 100°
2026-05-07 19:21 41.53819 44.48914 9880 ft 291 kts 100°
2026-05-07 19:21 41.53475 44.51551 9743 ft 287 kts 100°
2026-05-07 19:22 41.53129 44.54173 9614 ft 286 kts 100°
2026-05-07 19:22 41.52787 44.56754 9481 ft 286 kts 100°
2026-05-07 19:22 41.52439 44.59359 9351 ft 285 kts 100°
2026-05-07 19:22 41.52092 44.61965 9219 ft 285 kts 100°
2026-05-07 19:23 41.51747 44.64561 9087 ft 284 kts 100°
2026-05-07 19:23 41.51401 44.67156 8954 ft 284 kts 100°
2026-05-07 19:23 41.51058 44.69746 8819 ft 283 kts 100°
2026-05-07 19:23 41.50714 44.72331 8692 ft 283 kts 100°
2026-05-07 19:24 41.50370 44.74913 8565 ft 282 kts 100°
2026-05-07 19:24 41.50027 44.77488 8437 ft 282 kts 100°
2026-05-07 19:24 41.49686 44.80022 8311 ft 281 kts 100°
2026-05-07 19:24 41.49338 44.82585 8183 ft 281 kts 100°
2026-05-07 19:25 41.48991 44.85147 8054 ft 280 kts 100°
2026-05-07 19:25 41.48646 44.87702 7928 ft 280 kts 99°
2026-05-07 19:25 41.48304 44.90242 7809 ft 275 kts 99°
2026-05-07 19:25 41.47969 44.92710 7684 ft 268 kts 100°
2026-05-07 19:26 41.47628 44.95206 7558 ft 277 kts 99°
2026-05-07 19:26 41.47281 44.97747 7280 ft 281 kts 99°
2026-05-07 19:26 41.46929 45.00299 7034 ft 277 kts 99°
2026-05-07 19:26 41.46588 45.02784 6895 ft 268 kts 98°
2026-05-07 19:27 41.46604 45.05179 6773 ft 259 kts 77°
2026-05-07 19:27 41.47262 45.07354 6651 ft 250 kts 56°
2026-05-07 19:27 41.48358 45.09090 6345 ft 243 kts 45°
2026-05-07 19:27 41.49518 45.10728 5797 ft 244 kts 45°
2026-05-07 19:28 41.50752 45.12231 5415 ft 234 kts 26°
2026-05-07 19:28 41.52275 45.12665 5087 ft 221 kts 350°
2026-05-07 19:28 41.53593 45.11879 4843 ft 200 kts 319°
2026-05-07 19:28 41.54575 45.10656 4597 ft 184 kts 316°
2026-05-07 19:29 41.55457 45.09542 4357 ft 166 kts 316°
2026-05-07 19:29 41.56246 45.08549 4168 ft 149 kts 316°
2026-05-07 19:29 41.56988 45.07617 3955 ft 143 kts 316°
2026-05-07 19:29 41.57707 45.06712 3770 ft 141 kts 316°
2026-05-07 19:30 41.58415 45.05821 3582 ft 139 kts 316°
2026-05-07 19:30 41.59118 45.04937 3394 ft 139 kts 316°
2026-05-07 19:30 41.59822 45.04051 3187 ft 139 kts 317°
2026-05-07 19:30 41.60521 45.03170 2990 ft 138 kts 317°
2026-05-07 19:31 41.61217 45.02294 2798 ft 137 kts 317°
2026-05-07 19:31 41.61894 45.01442 2614 ft 135 kts 317°
2026-05-07 19:31 41.62573 45.00585 2428 ft 134 kts 317°
2026-05-07 19:31 41.63247 44.99736 2256 ft 132 kts 317°
2026-05-07 19:32 41.63912 44.98897 2084 ft 131 kts 317°
2026-05-07 19:32 41.64567 44.98067 1924 ft 129 kts 316°
2026-05-07 19:32 41.65224 44.97253 1684 ft 128 kts 317°
2026-05-07 19:32 41.65864 44.96438 1553 ft 127 kts 316°
2026-05-07 19:33 41.66415 44.95742 1524 ft 88 kts 317°
2026-05-07 19:33 41.66808 44.95254 1519 ft 70 kts 317°
2026-05-07 19:33 41.67124 44.94860 1520 ft 38 kts 320°
2026-05-07 19:33 41.67201 44.94768 1523 ft 4 kts 226°
2026-05-07 19:34 41.67170 44.94807 1521 ft 15 kts 137°
2026-05-07 19:34 41.67051 44.94953 1523 ft 26 kts 138°
2026-05-07 19:34 41.66919 44.95107 1525 ft 21 kts 131°
2026-05-07 19:34 41.66960 44.95273 1523 ft 21 kts 47°
2026-05-07 19:35 41.67071 44.95415 1521 ft 23 kts 43°
2026-05-07 19:35 41.67194 44.95565 1523 ft 25 kts 41°
2026-05-07 19:35 41.67176 44.95731 1520 ft 21 kts 129°
2026-05-07 19:35 41.67079 44.95888 1523 ft 23 kts 127°
2026-05-07 19:36 41.67013 44.96004 1519 ft 14 kts 131°
2026-05-07 19:36 41.66943 44.96107 1520 ft 13 kts 133°
2026-05-07 19:36 41.66904 44.96167 1523 ft 9 kts 129°
2026-05-07 19:36 41.66885 44.96197 1524 ft 0 kts 130°
2026-05-07 19:47 41.66884 44.96199 1519 ft 5 kts 130°
2026-05-07 19:47 41.66847 44.96259 1523 ft 10 kts 111°
2026-05-07 19:47 41.66869 44.96310 1523 ft 7 kts 44°
2026-05-07 19:47 41.66896 44.96345 1521 ft 0 kts 43°